EJU895Z LFQQ-LFMN

Flight info

Callsign EJU895Z
Flight time 1h 20m
Altitude 29000
Route VERMA T372 LESDO DCT KOVIN DCT DUCRA UM728 KETEX/N0435F350 DCT KOTIS DCT KUKOR DCT UTUVA DCT LERGA DCT LIQID DCT LATAM DCT TUNUR DCT NISAR
Aircraft A320/M-SDE2E3FGHIJ1RWXYZ/LB1

Departure

Time 2026-05-07 10:36
Airport Lille Airport (LFQQ)

Arrival

Time 2026-05-07 11:56
Airport Nice-Côte d'Azur Airport (LFMN)
Time Latitude Longitude Altitude Speed Heading
2026-05-07 10:05 50.57103 3.10609 152 ft 0 kts 347°
2026-05-07 10:24 50.57102 3.10609 152 ft 0 kts 347°
2026-05-07 10:25 50.57094 3.10612 152 ft 2 kts 347°
2026-05-07 10:25 50.57078 3.10618 152 ft 2 kts 347°
2026-05-07 10:25 50.57062 3.10623 151 ft 2 kts 347°
2026-05-07 10:25 50.57045 3.10624 151 ft 2 kts 19°
2026-05-07 10:26 50.57031 3.10612 151 ft 2 kts 44°
2026-05-07 10:26 50.57022 3.10592 151 ft 2 kts 69°
2026-05-07 10:26 50.57020 3.10581 151 ft 1 kts 82°
2026-05-07 10:26 50.57019 3.10575 151 ft 0 kts 78°
2026-05-07 10:28 50.57020 3.10581 151 ft 2 kts 78°
2026-05-07 10:29 50.57026 3.10631 151 ft 6 kts 83°
2026-05-07 10:29 50.56988 3.10698 149 ft 10 kts 164°
2026-05-07 10:29 50.56898 3.10730 147 ft 13 kts 166°
2026-05-07 10:30 50.56807 3.10559 148 ft 11 kts 257°
2026-05-07 10:30 50.56791 3.10433 150 ft 10 kts 257°
2026-05-07 10:30 50.56773 3.10313 151 ft 11 kts 257°
2026-05-07 10:30 50.56755 3.10188 152 ft 11 kts 256°
2026-05-07 10:31 50.56737 3.10066 153 ft 11 kts 257°
2026-05-07 10:31 50.56718 3.09932 154 ft 12 kts 258°
2026-05-07 10:31 50.56697 3.09780 155 ft 13 kts 258°
2026-05-07 10:31 50.56674 3.09614 156 ft 15 kts 257°
2026-05-07 10:32 50.56646 3.09422 157 ft 16 kts 257°
2026-05-07 10:32 50.56619 3.09233 157 ft 17 kts 257°
2026-05-07 10:32 50.56587 3.09065 157 ft 10 kts 224°
2026-05-07 10:32 50.56507 3.09055 157 ft 12 kts 168°
2026-05-07 10:33 50.56413 3.09070 157 ft 12 kts 210°
2026-05-07 10:33 50.56377 3.08934 157 ft 13 kts 255°
2026-05-07 10:33 50.56353 3.08772 157 ft 14 kts 259°
2026-05-07 10:33 50.56332 3.08610 157 ft 15 kts 258°
2026-05-07 10:34 50.56332 3.08438 157 ft 15 kts 288°
2026-05-07 10:34 50.56332 3.08322 158 ft 9 kts 192°
2026-05-07 10:34 50.56294 3.08350 157 ft 6 kts 86°
2026-05-07 10:34 50.56299 3.08385 157 ft 0 kts 76°
2026-05-07 10:35 50.56312 3.08478 157 ft 34 kts 77°
2026-05-07 10:35 50.56419 3.09221 156 ft 101 kts 77°
2026-05-07 10:35 50.56612 3.10596 152 ft 155 kts 77°
2026-05-07 10:35 50.56855 3.12290 727 ft 153 kts 77°
2026-05-07 10:36 50.56896 3.14043 1396 ft 152 kts 102°
2026-05-07 10:36 50.56390 3.15668 2042 ft 155 kts 134°
2026-05-07 10:36 50.55414 3.16746 2536 ft 168 kts 147°
2026-05-07 10:36 50.54231 3.17857 2999 ft 185 kts 147°
2026-05-07 10:37 50.52959 3.19101 3480 ft 202 kts 145°
2026-05-07 10:37 50.51673 3.20413 3852 ft 225 kts 145°
2026-05-07 10:37 50.50289 3.21796 4355 ft 242 kts 152°
2026-05-07 10:37 50.48562 3.22652 4880 ft 261 kts 172°
2026-05-07 10:38 50.46689 3.22785 5556 ft 270 kts 178°
2026-05-07 10:38 50.44663 3.22822 6448 ft 273 kts 178°
2026-05-07 10:38 50.42633 3.22860 7328 ft 275 kts 178°
2026-05-07 10:38 50.40445 3.22915 8209 ft 279 kts 178°
2026-05-07 10:39 50.38190 3.22983 9081 ft 283 kts 178°
2026-05-07 10:39 50.35915 3.23058 9939 ft 287 kts 178°
2026-05-07 10:39 50.33579 3.23139 10662 ft 296 kts 178°
2026-05-07 10:39 50.31094 3.23227 11113 ft 315 kts 179°
2026-05-07 10:40 50.28508 3.23318 11566 ft 331 kts 179°
2026-05-07 10:40 50.25825 3.23414 12298 ft 336 kts 179°
2026-05-07 10:40 50.23084 3.23512 13091 ft 339 kts 179°
2026-05-07 10:40 50.20326 3.23611 13856 ft 343 kts 179°
2026-05-07 10:41 50.17619 3.23708 14582 ft 346 kts 179°
2026-05-07 10:41 50.14790 3.23807 15296 ft 349 kts 179°
2026-05-07 10:41 50.11982 3.23906 15973 ft 353 kts 179°
2026-05-07 10:41 50.09117 3.24009 16643 ft 356 kts 179°
2026-05-07 10:42 50.06237 3.24112 17284 ft 360 kts 179°
2026-05-07 10:42 50.03369 3.24214 17890 ft 364 kts 179°
2026-05-07 10:42 50.00387 3.24530 18512 ft 368 kts 174°
2026-05-07 10:42 49.97451 3.25304 19104 ft 372 kts 168°
2026-05-07 10:43 49.94525 3.26422 19696 ft 375 kts 167°
2026-05-07 10:43 49.91585 3.27592 20277 ft 378 kts 166°
2026-05-07 10:43 49.88750 3.28714 20817 ft 380 kts 167°
2026-05-07 10:43 49.86001 3.29790 21325 ft 383 kts 167°
2026-05-07 10:44 49.83135 3.30826 21823 ft 385 kts 173°
2026-05-07 10:44 49.79999 3.30821 22300 ft 386 kts 190°
2026-05-07 10:44 49.77040 3.29445 22809 ft 387 kts 203°
2026-05-07 10:44 49.74150 3.27520 23341 ft 389 kts 204°
2026-05-07 10:45 49.71278 3.25570 23918 ft 389 kts 204°
2026-05-07 10:45 49.68404 3.23641 24575 ft 387 kts 204°
2026-05-07 10:45 49.65503 3.21718 25212 ft 386 kts 204°
2026-05-07 10:45 49.62650 3.19840 25825 ft 385 kts 204°
2026-05-07 10:46 49.59782 3.17959 26421 ft 383 kts 204°
2026-05-07 10:46 49.56930 3.16093 27012 ft 382 kts 204°
2026-05-07 10:46 49.54060 3.14217 27562 ft 381 kts 204°
2026-05-07 10:46 49.51210 3.12338 28007 ft 383 kts 205°
2026-05-07 10:47 49.48507 3.10287 28399 ft 385 kts 210°
2026-05-07 10:47 49.45983 3.08009 28782 ft 386 kts 214°
2026-05-07 10:47 49.43514 3.05509 29018 ft 388 kts 214°
2026-05-07 10:47 49.41018 3.02964 29020 ft 388 kts 214°
2026-05-07 10:48 49.36188 2.98054 29023 ft 388 kts 214°
2026-05-07 10:48 49.31496 2.93301 29020 ft 388 kts 214°
2026-05-07 10:49 49.26693 2.88446 29023 ft 405 kts 214°
2026-05-07 10:49 49.21835 2.83550 29019 ft 409 kts 214°
2026-05-07 10:50 49.16777 2.78470 29019 ft 410 kts 214°
2026-05-07 10:50 49.11364 2.73046 29025 ft 410 kts 214°
2026-05-07 10:51 49.05859 2.67542 29028 ft 410 kts 214°
2026-05-07 10:51 49.00801 2.62498 29037 ft 411 kts 214°
2026-05-07 10:52 48.95648 2.57373 29037 ft 410 kts 214°
2026-05-07 10:52 48.90456 2.52221 29039 ft 410 kts 214°
2026-05-07 10:53 48.85567 2.47382 29036 ft 410 kts 214°
2026-05-07 10:53 48.80473 2.42352 29042 ft 410 kts 214°
2026-05-07 10:54 48.75316 2.37274 29037 ft 410 kts 214°
2026-05-07 10:54 48.70488 2.32531 29039 ft 410 kts 214°
2026-05-07 10:55 48.65731 2.27867 29036 ft 410 kts 214°
2026-05-07 10:55 48.60634 2.22889 29036 ft 410 kts 212°
2026-05-07 10:56 48.57667 2.20896 29029 ft 413 kts 195°
2026-05-07 10:56 48.54428 2.20354 29044 ft 418 kts 178°
2026-05-07 10:56 48.51334 2.21170 29364 ft 420 kts 167°
2026-05-07 10:56 48.48170 2.22407 29930 ft 417 kts 166°
2026-05-07 10:57 48.45007 2.23653 30322 ft 417 kts 166°
2026-05-07 10:57 48.41863 2.24870 30610 ft 419 kts 167°
2026-05-07 10:57 48.38746 2.26061 30906 ft 421 kts 167°
2026-05-07 10:57 48.35523 2.27284 31190 ft 423 kts 167°
2026-05-07 10:58 48.32301 2.28501 31474 ft 424 kts 167°
2026-05-07 10:58 48.29148 2.29689 31760 ft 426 kts 167°
2026-05-07 10:58 48.25916 2.30936 32043 ft 427 kts 166°
2026-05-07 10:58 48.22860 2.32159 32309 ft 428 kts 166°
2026-05-07 10:59 48.19707 2.33426 32589 ft 428 kts 166°
2026-05-07 10:59 48.16557 2.34686 32866 ft 428 kts 166°
2026-05-07 10:59 48.13409 2.35974 33145 ft 429 kts 165°
2026-05-07 10:59 48.10287 2.37482 33424 ft 429 kts 163°
2026-05-07 11:00 48.07345 2.38947 33685 ft 429 kts 163°
2026-05-07 11:00 48.04397 2.40414 33939 ft 429 kts 163°
2026-05-07 11:00 48.01278 2.41964 34223 ft 428 kts 163°
2026-05-07 11:00 47.98211 2.43486 34498 ft 428 kts 163°
2026-05-07 11:01 47.95264 2.44948 34752 ft 427 kts 163°
2026-05-07 11:01 47.92050 2.46539 34955 ft 427 kts 163°
2026-05-07 11:01 47.86023 2.49512 34999 ft 437 kts 163°
2026-05-07 11:02 47.79542 2.52705 34995 ft 446 kts 163°
2026-05-07 11:02 47.73181 2.55836 34986 ft 447 kts 163°
2026-05-07 11:03 47.66795 2.58971 34995 ft 447 kts 163°
2026-05-07 11:03 47.60260 2.62169 34990 ft 448 kts 163°
2026-05-07 11:04 47.53682 2.65377 35001 ft 448 kts 164°
2026-05-07 11:04 47.47486 2.68393 35000 ft 447 kts 164°
2026-05-07 11:05 47.41235 2.71429 34998 ft 447 kts 164°
2026-05-07 11:05 47.34506 2.74690 35003 ft 447 kts 165°
2026-05-07 11:06 47.27727 2.77966 35001 ft 448 kts 165°
2026-05-07 11:06 47.21199 2.81108 35004 ft 448 kts 165°
2026-05-07 11:07 47.14759 2.84198 35006 ft 448 kts 165°
2026-05-07 11:07 47.08272 2.87301 35007 ft 447 kts 165°
2026-05-07 11:08 47.01680 2.90449 35006 ft 447 kts 165°
2026-05-07 11:08 46.95397 2.93446 35010 ft 448 kts 165°
2026-05-07 11:09 46.89241 2.96372 35008 ft 449 kts 165°
2026-05-07 11:09 46.83132 2.99270 35002 ft 449 kts 165°
2026-05-07 11:10 46.76853 3.02241 34995 ft 448 kts 165°
2026-05-07 11:10 46.70594 3.05195 34994 ft 447 kts 165°
2026-05-07 11:11 46.64245 3.08186 34988 ft 448 kts 165°
2026-05-07 11:11 46.57619 3.11301 34984 ft 448 kts 165°
2026-05-07 11:12 46.51071 3.14588 34992 ft 450 kts 163°
2026-05-07 11:12 46.44544 3.18105 34982 ft 449 kts 163°
2026-05-07 11:13 46.38021 3.21611 34981 ft 449 kts 163°
2026-05-07 11:13 46.31999 3.24840 34976 ft 449 kts 163°
2026-05-07 11:14 46.25731 3.28194 34980 ft 449 kts 163°
2026-05-07 11:14 46.19299 3.31626 34993 ft 449 kts 163°
2026-05-07 11:15 46.12750 3.35114 34991 ft 449 kts 163°
2026-05-07 11:15 46.06398 3.38491 34994 ft 449 kts 163°
2026-05-07 11:16 46.00186 3.41784 34998 ft 449 kts 163°
2026-05-07 11:16 45.93910 3.45103 34984 ft 449 kts 163°
2026-05-07 11:17 45.87854 3.48296 34980 ft 449 kts 164°
2026-05-07 11:17 45.81738 3.51077 34978 ft 446 kts 167°
2026-05-07 11:18 45.75441 3.53789 34972 ft 447 kts 167°
2026-05-07 11:18 45.68845 3.56629 34978 ft 447 kts 167°
2026-05-07 11:19 45.62356 3.59416 34977 ft 447 kts 167°
2026-05-07 11:19 45.56055 3.62112 34979 ft 446 kts 167°
2026-05-07 11:20 45.49598 3.64871 34982 ft 446 kts 167°
2026-05-07 11:20 45.43421 3.67506 34977 ft 445 kts 168°
2026-05-07 11:21 45.37138 3.70177 34981 ft 445 kts 168°
2026-05-07 11:21 45.30678 3.73561 34975 ft 452 kts 158°
2026-05-07 11:22 45.25110 3.78899 34982 ft 459 kts 143°
2026-05-07 11:22 45.20651 3.85994 34982 ft 468 kts 128°
2026-05-07 11:23 45.16790 3.94546 34987 ft 468 kts 126°
2026-05-07 11:23 45.12937 4.03102 34983 ft 467 kts 127°
2026-05-07 11:24 45.09041 4.11602 34974 ft 468 kts 127°
2026-05-07 11:24 45.05097 4.20131 34964 ft 468 kts 128°
2026-05-07 11:25 45.00696 4.28075 34954 ft 464 kts 136°
2026-05-07 11:25 44.95886 4.35461 34951 ft 464 kts 137°
2026-05-07 11:26 44.91072 4.42826 34962 ft 464 kts 137°
2026-05-07 11:26 44.86350 4.50049 34959 ft 464 kts 137°
2026-05-07 11:27 44.81801 4.56994 34968 ft 464 kts 137°
2026-05-07 11:27 44.77083 4.64183 34965 ft 464 kts 137°
2026-05-07 11:28 44.72498 4.71156 34966 ft 464 kts 137°
2026-05-07 11:28 44.68059 4.77890 34963 ft 464 kts 138°
2026-05-07 11:29 44.63545 4.84719 34964 ft 466 kts 137°
2026-05-07 11:29 44.59194 4.91653 34966 ft 467 kts 136°
2026-05-07 11:30 44.54660 4.98947 34967 ft 467 kts 136°
2026-05-07 11:30 44.52452 5.02474 34656 ft 468 kts 136°
2026-05-07 11:30 44.50141 5.06149 34048 ft 467 kts 136°
2026-05-07 11:31 44.47804 5.09863 33631 ft 459 kts 136°
2026-05-07 11:31 44.45542 5.13459 33636 ft 457 kts 136°
2026-05-07 11:31 44.43315 5.16989 33307 ft 460 kts 136°
2026-05-07 11:31 44.41005 5.20643 32523 ft 462 kts 136°
2026-05-07 11:32 44.36151 5.27566 30957 ft 460 kts 142°
2026-05-07 11:32 44.33492 5.30698 30258 ft 455 kts 146°
2026-05-07 11:32 44.30804 5.33626 29751 ft 449 kts 146°
2026-05-07 11:33 44.28103 5.36559 29230 ft 443 kts 146°
2026-05-07 11:33 44.25447 5.39444 28710 ft 437 kts 146°
2026-05-07 11:33 44.22822 5.42301 28197 ft 432 kts 146°
2026-05-07 11:33 44.20222 5.45127 27681 ft 427 kts 146°
2026-05-07 11:34 44.17594 5.47979 27157 ft 421 kts 145°
2026-05-07 11:34 44.15062 5.50726 26658 ft 415 kts 145°
2026-05-07 11:34 44.12517 5.53480 26149 ft 410 kts 145°
2026-05-07 11:34 44.10002 5.56198 25640 ft 406 kts 145°
2026-05-07 11:35 44.07488 5.58913 25123 ft 401 kts 145°
2026-05-07 11:35 44.05021 5.61578 24603 ft 397 kts 144°
2026-05-07 11:35 44.02560 5.64231 24090 ft 392 kts 144°
2026-05-07 11:35 44.00232 5.66739 23596 ft 388 kts 145°
2026-05-07 11:36 43.97831 5.69326 23080 ft 383 kts 145°
2026-05-07 11:36 43.95451 5.71889 22581 ft 379 kts 145°
2026-05-07 11:36 43.93096 5.74420 22078 ft 375 kts 145°
2026-05-07 11:36 43.90750 5.76938 21571 ft 372 kts 145°
2026-05-07 11:37 43.88588 5.79257 21102 ft 369 kts 145°
2026-05-07 11:37 43.86313 5.81690 20612 ft 366 kts 144°
2026-05-07 11:37 43.83980 5.84184 20107 ft 363 kts 144°
2026-05-07 11:37 43.81715 5.86599 19616 ft 361 kts 144°
2026-05-07 11:38 43.79444 5.89020 19127 ft 358 kts 144°
2026-05-07 11:38 43.77186 5.91427 18630 ft 355 kts 144°
2026-05-07 11:38 43.74996 5.93758 18175 ft 353 kts 144°
2026-05-07 11:38 43.72851 5.96039 17703 ft 351 kts 144°
2026-05-07 11:39 43.70712 5.98311 17229 ft 349 kts 144°
2026-05-07 11:39 43.68560 6.00596 16752 ft 348 kts 144°
2026-05-07 11:39 43.66399 6.02888 16264 ft 346 kts 144°
2026-05-07 11:39 43.64311 6.05099 15806 ft 344 kts 144°
2026-05-07 11:40 43.62239 6.07293 15353 ft 343 kts 144°
2026-05-07 11:40 43.60398 6.09519 14896 ft 343 kts 133°
2026-05-07 11:40 43.58935 6.12444 14411 ft 344 kts 117°
2026-05-07 11:40 43.57933 6.15782 13944 ft 343 kts 111°
2026-05-07 11:41 43.57048 6.19101 13493 ft 341 kts 111°
2026-05-07 11:41 43.56162 6.22434 13034 ft 339 kts 111°
2026-05-07 11:41 43.55294 6.25650 12597 ft 337 kts 111°
2026-05-07 11:41 43.54433 6.28806 12158 ft 335 kts 111°
2026-05-07 11:42 43.53565 6.31961 11703 ft 333 kts 111°
2026-05-07 11:42 43.52696 6.35107 11288 ft 328 kts 111°
2026-05-07 11:42 43.51775 6.38431 11121 ft 314 kts 111°
2026-05-07 11:42 43.50920 6.41491 10974 ft 299 kts 114°
2026-05-07 11:43 43.49809 6.44198 10806 ft 288 kts 127°
2026-05-07 11:43 43.48350 6.46514 10409 ft 285 kts 134°
2026-05-07 11:43 43.46775 6.48745 10021 ft 284 kts 135°
2026-05-07 11:43 43.45277 6.50856 9653 ft 282 kts 135°
2026-05-07 11:44 43.43810 6.52944 9304 ft 280 kts 134°
2026-05-07 11:44 43.42374 6.55000 8940 ft 278 kts 134°
2026-05-07 11:44 43.40944 6.57056 8608 ft 277 kts 134°
2026-05-07 11:44 43.39525 6.59110 8255 ft 275 kts 131°
2026-05-07 11:45 43.38507 6.61522 7974 ft 281 kts 106°
2026-05-07 11:45 43.38215 6.64553 7954 ft 281 kts 93°
2026-05-07 11:45 43.38122 6.67408 7599 ft 279 kts 92°
2026-05-07 11:45 43.38032 6.70398 7393 ft 270 kts 92°
2026-05-07 11:46 43.37938 6.73306 7230 ft 261 kts 93°
2026-05-07 11:46 43.37841 6.76076 7043 ft 252 kts 93°
2026-05-07 11:46 43.37740 6.78818 6837 ft 244 kts 93°
2026-05-07 11:46 43.37645 6.81325 6625 ft 238 kts 94°
2026-05-07 11:47 43.37548 6.83791 6316 ft 236 kts 94°
2026-05-07 11:47 43.37453 6.86182 6033 ft 235 kts 94°
2026-05-07 11:47 43.37351 6.88712 5719 ft 234 kts 93°
2026-05-07 11:47 43.37248 6.91231 5392 ft 234 kts 94°
2026-05-07 11:48 43.37143 6.93822 5068 ft 233 kts 94°
2026-05-07 11:48 43.37038 6.96383 4746 ft 232 kts 94°
2026-05-07 11:48 43.36934 6.98936 4425 ft 231 kts 92°
2026-05-07 11:48 43.37301 7.01402 4066 ft 231 kts 58°
2026-05-07 11:49 43.38638 7.02991 3957 ft 229 kts 19°
2026-05-07 11:49 43.40291 7.03191 3810 ft 225 kts 346°
2026-05-07 11:49 43.41904 7.02403 3527 ft 222 kts 335°
2026-05-07 11:49 43.43500 7.01575 3349 ft 215 kts 352°
2026-05-07 11:50 43.45103 7.01514 3179 ft 208 kts
2026-05-07 11:50 43.46480 7.02058 3068 ft 198 kts 21°
2026-05-07 11:50 43.47698 7.02860 3021 ft 193 kts 28°
2026-05-07 11:50 43.48927 7.03737 2984 ft 193 kts 28°
2026-05-07 11:51 43.50131 7.04598 2970 ft 193 kts 28°
2026-05-07 11:51 43.51272 7.05483 2858 ft 187 kts 32°
2026-05-07 11:51 43.52375 7.06420 2679 ft 179 kts 33°
2026-05-07 11:51 43.53402 7.07303 2502 ft 171 kts 33°
2026-05-07 11:52 43.54409 7.08171 2448 ft 167 kts 33°
2026-05-07 11:52 43.55380 7.09010 2172 ft 168 kts 33°
2026-05-07 11:52 43.56382 7.09875 1921 ft 170 kts 33°
2026-05-07 11:52 43.57372 7.10715 1713 ft 166 kts 33°
2026-05-07 11:53 43.58284 7.11547 1629 ft 149 kts 37°
2026-05-07 11:53 43.59094 7.12397 1437 ft 142 kts 41°
2026-05-07 11:53 43.59824 7.13279 1357 ft 140 kts 45°
2026-05-07 11:53 43.60543 7.14191 1240 ft 140 kts 44°
2026-05-07 11:54 43.61264 7.15101 1048 ft 140 kts 45°
2026-05-07 11:54 43.61966 7.16024 806 ft 138 kts 46°
2026-05-07 11:54 43.62672 7.16944 638 ft 137 kts 45°
2026-05-07 11:54 43.63360 7.17874 518 ft 137 kts 47°
2026-05-07 11:55 43.64034 7.18829 417 ft 136 kts 47°
2026-05-07 11:55 43.64706 7.19754 239 ft 136 kts 47°
2026-05-07 11:55 43.65374 7.20666 52 ft 134 kts 47°
2026-05-07 11:55 43.65977 7.21499 26 ft 92 kts 45°
2026-05-07 11:56 43.66258 7.21886 26 ft 38 kts 43°
2026-05-07 11:56 43.66431 7.22020 25 ft 20 kts 19°
2026-05-07 11:56 43.66523 7.22059 26 ft 9 kts 359°
2026-05-07 11:56 43.66560 7.22027 27 ft 5 kts 313°
2026-05-07 11:57 43.66584 7.21990 28 ft 2 kts 288°
2026-05-07 11:57 43.66559 7.21962 28 ft 6 kts 206°
2026-05-07 11:57 43.66512 7.21913 28 ft 9 kts 224°
2026-05-07 11:57 43.66459 7.21840 28 ft 11 kts 224°
2026-05-07 11:58 43.66400 7.21759 28 ft 11 kts 225°
2026-05-07 11:58 43.66340 7.21676 29 ft 12 kts 225°
2026-05-07 11:58 43.66338 7.21590 30 ft 10 kts 307°
2026-05-07 11:58 43.66378 7.21513 31 ft 9 kts 276°
2026-05-07 11:59 43.66352 7.21419 31 ft 9 kts 260°
2026-05-07 11:59 43.66341 7.21322 32 ft 10 kts 261°
2026-05-07 11:59 43.66330 7.21217 32 ft 11 kts 261°
2026-05-07 11:59 43.66318 7.21127 33 ft 9 kts 260°
2026-05-07 12:00 43.66310 7.21059 33 ft 3 kts 260°
2026-05-07 12:00 43.66305 7.21012 33 ft 5 kts 269°
2026-05-07 12:00 43.66326 7.20947 34 ft 8 kts 272°
2026-05-07 12:00 43.66315 7.20849 34 ft 8 kts 259°
2026-05-07 12:01 43.66305 7.20773 34 ft 8 kts 260°
2026-05-07 12:01 43.66302 7.20693 34 ft 6 kts 251°
2026-05-07 12:01 43.66273 7.20643 34 ft 7 kts 227°
2026-05-07 12:01 43.66257 7.20618 34 ft 0 kts 226°
2026-05-07 12:02 43.66253 7.20612 34 ft 0 kts 226°